Location: downtown San Diego
(32.7310°N, 117.1990°W)
Time: 12:31:19
(UTC-08:00)

Cosmos 1809 Rocket - Pass Details

Date: 12 July 2018
Orbit: 940 x 964 km, 82.5° (Epoch: 18 November)

Event Time Altitude Azimuth Distance (km) Brightness Sun altitude
Rises 21:28:52 0° 357° (N) 3,627 8.2 -16.6°
Reaches altitude 10° 21:31:23 10° 0° (N) 2,682 7.4 -17.0°
Maximum altitude 21:37:28 64° 82° (E) 1,049 4.5 -18.0°
Enters shadow 21:40:51 28° 156° (SSE) 1,729 5.3 -18.5°
